Weather in Bechyne

Czech Republic     49°17′50″N   14°28′09″E
temp.,
°C
wind,
m/s
gust,
m/s
humid.,
%
clouds,
%
prec.,
mm/h
press.,
hPa
HPBL,
m
1 august, sun
sun123:00+17nnw1179100 0.1 101011
02:00+16nne2278100 0.2 101041
05:00+14nnw2392100 1.9 100887
08:00+13n3896100 8.3 1007440
11:00+14wnw5898100 4.4 1008678
14:00+16nw577761 11.1 1009821
17:00+18nw466651 0.1 10091212
20:00+14w3787100 0.1 1010370
2 august, mon
mon223:00+13ssw2695100 0.6 1011238
02:00+13wsw31094100 2.7 1012559
05:00+13sw2895100 0.9 1012257
08:00+14w310895 1.0 1014574
11:00+19w57608 0.6 10141462
14:00+21wnw574917 0.6 10141937
17:00+20wnw465437 0.1 10141603
20:00+15wnw25865 1.1 1015105
3 august, tue
tue323:00+13w11925 0.2 101710
02:00+12sw11945 0.2 101710
05:00+11sse11953 0.0 101711
08:00+14sse12872 0.0 1017149
11:00+20sse225770 0.0 1016944
14:00+23sse2447100 0.0 10141650
17:00+24ssw024696 0.0 10121352
20:00+15nnw27896 1.2 1014181
4 august, wed
wed423:00+13s119497 0.1 101611
02:00+13ese1193100 0.1 101611
05:00+13se119215 0.0 101510
08:00+16sse118498 0.0 1015119
11:00+17nne1278100 0.0 1015255
14:00+23se2249100 0.0 10131259
17:00+21n336299 0.0 1012477
20:00+15nnw4994100 1.1 1013318
5 august, thu
thu523:00+13nnw3798100 11.8 1015418
02:00+13nw2699100 25.6 1015315
05:00+13wnw2798100 1.6 1014349
08:00+14wnw369234 1.6 1014402
11:00+18wnw4666100 0.0 10131184
14:00+20wnw355783 0.2 10121569
17:00+19wnw346592 0.4 10111061
20:00+16w238524 0.9 101150